Route Details

Aircraft Information
Group: North America Fleet
Types: B738, B752, B762, B763
Route Data
Distance: 677nm
Duration: 2h 14m
Origin METAR: KAFW 080053Z 02011KT 2 1/2SM -DZ BR OVC005 08/08 A3007 RMK AO2 SFC VIS 3 SLP182 P0000 T00830078
Dest. METAR: KRFD 080054Z 27008KT 10SM CLR 02/M04 A3017 RMK AO2 SLP224 T00171039
Freight Data
(for Feb 8, 2023)
Load Factor:
59%
Manifested Cargo: 65,702lbs
Financial History
Total Freight: 103,640lbs
Average Load: 0lbs/flt
Fuel Used: 19,042lbs
Avg. Fuel Used: 0lbs/flt
Fuel Expense: $15,424
Avg. Fuel Expense: $0
Avg. Fuel Cost: $0/lbs
Total Gross Income: $147,169
Pilot Pay: $259
Total Expenses: $15,946
Total Revenue: $115,305
Average Revenue: $0

Capitol Logistics 458




KAFW
Fort Worth Alliance Airport
Fort Worth, Texas
KRFD
Chicago/Rockford International Airport
Rockford, Illinois

Activity Log

Date Flight Route Aircraft Duration
04/29/2020 CPX253 TEX7 GRABE RZC J105 VORIN B763 1h 50m